Location: Unspecified
(47.9110°N, 14.3980°E)
Time: 05:38:47
(UTC+00:00)

Cosmos 1954 Rocket - Pass Details

Date: 06 August 2020
Orbit: 752 x 781 km, 74.0° (Epoch: 19 September)

Event Time Altitude Azimuth Distance (km) Brightness Sun altitude
Exits shadow 21:22:35 18° 218° (SW) 1,843 5.7 -21.5°
Maximum altitude 21:26:32 63° 296° (WNW) 876 4.4 -21.8°
Drops below altitude 10° 21:31:49 10° 17° (NNE) 2,346 7.1 -22.2°
Sets 21:34:15 0° 21° (NNE) 3,276 7.9 -22.4°
